Find Starlink 5479

NORAD ID: 55662 Int'l Des: 2023-021 Owner: SPXS Country: US Constellation: starlink operational
LEOCIRCULAR

Current View

Loading 3D Globe...

About Starlink 5479

Description loading...

Upcoming Passes

Passes for default location (London). Set your location on the main map for personalized predictions.

Altitude History

Loading altitude history...

Two-Line Element Set

1 55662U 23021AL 26150.81223318 .00000217 00000-0 26480-4 0 9998
2 55662 69.9991 317.4893 0002530 266.5041 93.5829 14.97521737181583
Epoch: May 30, 2026 • Age: 10 hours

Current Status

Altitude 577.1 km
Velocity 7.57 km/s
Sub-Earth Point -2.43°S, 159.66°E
Launch Date Feb 17, 2023
Age 3.2 years
Type internet

Technical Details

Classification Payload
Mass 305.00 kg
Dry Mass 290.00 kg
Total Mass 305.00 kg
Length 0.20 m
Diameter 2.80 m
Span 9.00 m
Shape Box + pan
Manufacturer SPXS
Bus Type Starlink
Phase Status In Orbit
Owner/State SPXS/US

Most Searched